Location: Riverside Cemetery
(38.3047°N, 99.7773°W)
Time: 02:48:38
(UTC+00:00)

Cosmos 1975 - Pass Details

Date: 19 September 2020
Orbit: 541 x 562 km, 82.5° (Epoch: 22 October)

Event Time Altitude Azimuth Distance (km) Brightness Sun altitude
Rises 01:04:16 0° 178° (S) 2,738 6.3 -5.3°
Reaches altitude 10° 01:06:26 10° 175° (S) 1,847 5.4 -5.7°
Maximum altitude 01:10:27 62° 95° (E) 636 2.9 -6.5°
Drops below altitude 10° 01:14:30 10° 14° (NNE) 1,858 5.5 -7.3°
Sets 01:16:42 0° 11° (NNE) 2,756 6.4 -7.7°
